When you browse on this site, cookies collect data to enhance your experience and personalize the content and advertising you see.
Visit our Privacy Policy to learn more. By continuing to use the site, you agree to this use of cookies and data.
  • In Österreich
  • Länderverzeichnis
  • Für 7 Tage
  • Wassertemperatur
  • Wetterkarte
  • News
  • Widgets
  • user-avatar
    Anmelden

    Stündliche Wetter Charlottetown

    Heute, 15 Dezember, Sonntag

    Zeit Temperatur Niederschläge Wind Luftdruck Luftfeuchtigkeit
    00:00 +11°C° 0.1 mm 8 m/S 743 mmHg 94%
    01:00 +11°C° 0.1 mm 8 m/S 743 mmHg 94%
    02:00 +10°C° 0.1 mm 8 m/S 742 mmHg 93%
    03:00 +11°C° 0.1 mm 8 m/S 741 mmHg 93%
    04:00 +11°C° 0.1 mm 8 m/S 740 mmHg 93%
    05:00 +12°C° 0.1 mm 8 m/S 739 mmHg 93%
    06:00 +11°C° 0.1 mm 9 m/S 738 mmHg 90%
    07:00 +11°C° 0.1 mm 9 m/S 738 mmHg 87%
    08:00 +10°C° 0.1 mm 9 m/S 738 mmHg 84%
    09:00 +8°C° 0 mm 10 m/S 738 mmHg 82%
    10:00 +7°C° 0 mm 11 m/S 737 mmHg 80%
    11:00 +6°C° 0 mm 11 m/S 737 mmHg 77%
    12:00 +6°C° 0 mm 11 m/S 737 mmHg 75%
    13:00 +4°C° 0 mm 12 m/S 737 mmHg 73%
    14:00 +3°C° 0 mm 12 m/S 737 mmHg 71%
    15:00 +3°C° 0 mm 12 m/S 737 mmHg 70%
    16:00 +2°C° 0 mm 11 m/S 737 mmHg 70%
    17:00 +2°C° 0 mm 11 m/S 738 mmHg 69%
    18:00 +1°C° 0 mm 11 m/S 739 mmHg 68%
    19:00 -1°C° 0 mm 11 m/S 740 mmHg 67%
    20:00 -1°C° 0 mm 11 m/S 741 mmHg 66%
    21:00 -2°C° 0 mm 11 m/S 741 mmHg 65%
    22:00 -3°C° 0 mm 12 m/S 742 mmHg 65%
    23:00 -5°C° 0 mm 12 m/S 742 mmHg 64%

    Morgen, 16 Dezember, Montag

    Zeit Temperatur Niederschläge Wind Luftdruck Luftfeuchtigkeit
    00:00 -6°C° 0 mm 13 m/S 743 mmHg 63%
    01:00 -7°C° 0 mm 13 m/S 744 mmHg 62%
    02:00 -9°C° 0 mm 13 m/S 745 mmHg 61%
    03:00 -9°C° 0 mm 14 m/S 745 mmHg 59%
    04:00 -10°C° 0 mm 14 m/S 746 mmHg 57%
    05:00 -10°C° 0 mm 14 m/S 747 mmHg 56%
    06:00 -11°C° 0 mm 14 m/S 748 mmHg 54%
    07:00 -11°C° 0 mm 14 m/S 749 mmHg 53%
    08:00 -11°C° 0 mm 14 m/S 750 mmHg 52%
    09:00 -12°C° 0 mm 15 m/S 751 mmHg 48%
    10:00 -13°C° 0 mm 15 m/S 751 mmHg 44%
    11:00 -13°C° 0 mm 15 m/S 752 mmHg 41%
    12:00 -12°C° 0 mm 15 m/S 752 mmHg 40%
    13:00 -12°C° 0 mm 15 m/S 752 mmHg 38%
    14:00 -11°C° 0 mm 14 m/S 753 mmHg 37%
    15:00 -11°C° 0 mm 14 m/S 753 mmHg 38%
    16:00 -11°C° 0 mm 14 m/S 754 mmHg 38%
    17:00 -11°C° 0 mm 14 m/S 754 mmHg 39%
    18:00 -11°C° 0 mm 13 m/S 755 mmHg 39%
    19:00 -11°C° 0 mm 13 m/S 755 mmHg 40%
    20:00 -11°C° 0 mm 13 m/S 756 mmHg 40%
    21:00 -11°C° 0 mm 13 m/S 756 mmHg 41%
    22:00 -11°C° 0 mm 12 m/S 757 mmHg 42%
    23:00 -11°C° 0 mm 12 m/S 757 mmHg 43%

    übermorgen, 17 Dezember, Dienstag

    Zeit Temperatur Niederschläge Wind Luftdruck Luftfeuchtigkeit
    00:00 -11°C° 0 mm 11 m/S 758 mmHg 44%
    01:00 -11°C° 0 mm 11 m/S 758 mmHg 45%
    02:00 -10°C° 0 mm 10 m/S 758 mmHg 46%
    03:00 -10°C° 0 mm 10 m/S 758 mmHg 48%
    04:00 -10°C° 0 mm 10 m/S 759 mmHg 50%
    05:00 -10°C° 0 mm 9 m/S 759 mmHg 51%
    06:00 -10°C° 0 mm 9 m/S 759 mmHg 56%
    07:00 -10°C° 0 mm 8 m/S 759 mmHg 60%
    08:00 -9°C° 0 mm 7 m/S 759 mmHg 64%
    09:00 -9°C° 0 mm 7 m/S 759 mmHg 62%
    10:00 -8°C° 0 mm 6 m/S 759 mmHg 59%
    11:00 -8°C° 0 mm 6 m/S 758 mmHg 57%
    12:00 -6°C° 0 mm 5 m/S 758 mmHg 57%
    13:00 -5°C° 0 mm 4 m/S 757 mmHg 58%
    14:00 -5°C° 0 mm 3 m/S 757 mmHg 58%
    15:00 -5°C° 0 mm 3 m/S 756 mmHg 59%
    16:00 -4°C° 0 mm 2 m/S 756 mmHg 60%
    17:00 -2°C° 0 mm 1 m/S 756 mmHg 61%
    18:00 -2°C° 0 mm 1 m/S 755 mmHg 61%
    19:00 -2°C° 0 mm 1 m/S 755 mmHg 62%
    20:00 -2°C° 0 mm 1 m/S 754 mmHg 62%
    21:00 -5°C° 0.2 mm 2 m/S 754 mmHg 70%
    22:00 -5°C° 0.2 mm 2 m/S 753 mmHg 79%
    23:00 -6°C° 0.2 mm 3 m/S 753 mmHg 88%

    18 Dezember, Mittwoch

    Zeit Temperatur Niederschläge Wind Luftdruck Luftfeuchtigkeit
    00:00 -6°C° 0.2 mm 3 m/S 752 mmHg 88%
    01:00 -6°C° 0.2 mm 3 m/S 752 mmHg 88%
    02:00 -6°C° 0.2 mm 3 m/S 752 mmHg 88%
    03:00 -6°C° 0.1 mm 3 m/S 751 mmHg 88%
    04:00 -6°C° 0.1 mm 3 m/S 751 mmHg 87%
    05:00 -6°C° 0.1 mm 3 m/S 751 mmHg 86%
    06:00 -6°C° 0 mm 3 m/S 752 mmHg 82%
    07:00 -6°C° 0 mm 3 m/S 752 mmHg 79%
    08:00 -6°C° 0 mm 3 m/S 752 mmHg 75%
    09:00 -6°C° 0 mm 3 m/S 752 mmHg 73%
    10:00 -6°C° 0 mm 3 m/S 753 mmHg 71%
    11:00 -5°C° 0 mm 3 m/S 753 mmHg 69%
    12:00 -5°C° 0 mm 3 m/S 753 mmHg 68%
    13:00 -5°C° 0 mm 3 m/S 753 mmHg 67%
    14:00 -4°C° 0 mm 2 m/S 752 mmHg 65%
    15:00 -5°C° 0 mm 2 m/S 753 mmHg 67%
    16:00 -3°C° 0 mm 1 m/S 753 mmHg 68%
    17:00 -3°C° 0 mm 1 m/S 753 mmHg 69%
    18:00 -3°C° 0 mm 1 m/S 753 mmHg 70%
    19:00 -4°C° 0 mm 1 m/S 753 mmHg 72%
    20:00 -4°C° 0 mm 1 m/S 753 mmHg 73%
    21:00 -4°C° 0 mm 1 m/S 753 mmHg 74%
    22:00 -4°C° 0 mm 1 m/S 752 mmHg 75%
    23:00 -6°C° 0 mm 2 m/S 752 mmHg 76%

    19 Dezember, Donnerstag

    Zeit Temperatur Niederschläge Wind Luftdruck Luftfeuchtigkeit
    00:00 -6°C° 0 mm 2 m/S 752 mmHg 77%
    01:00 -7°C° 0 mm 3 m/S 751 mmHg 79%
    02:00 -7°C° 0 mm 3 m/S 750 mmHg 80%
    03:00 -7°C° 0 mm 3 m/S 750 mmHg 81%
    04:00 -8°C° 0 mm 4 m/S 750 mmHg 83%
    05:00 -8°C° 0 mm 4 m/S 749 mmHg 84%
    06:00 -8°C° 0.2 mm 5 m/S 749 mmHg 86%
    07:00 -9°C° 0.2 mm 6 m/S 749 mmHg 88%
    08:00 -9°C° 0.2 mm 7 m/S 748 mmHg 90%
    09:00 -9°C° 0.2 mm 7 m/S 749 mmHg 88%
    10:00 -9°C° 0.2 mm 7 m/S 749 mmHg 87%
    11:00 -9°C° 0.2 mm 7 m/S 750 mmHg 85%
    12:00 -9°C° 0.3 mm 7 m/S 750 mmHg 85%
    13:00 -8°C° 0.3 mm 6 m/S 750 mmHg 85%
    14:00 -8°C° 0.3 mm 6 m/S 751 mmHg 85%
    15:00 -9°C° 0.2 mm 7 m/S 752 mmHg 86%
    16:00 -10°C° 0.2 mm 8 m/S 753 mmHg 87%
    17:00 -11°C° 0.2 mm 9 m/S 754 mmHg 88%
    18:00 -11°C° 0.1 mm 9 m/S 755 mmHg 85%
    19:00 -12°C° 0.1 mm 9 m/S 755 mmHg 83%
    20:00 -14°C° 0.1 mm 9 m/S 756 mmHg 80%
    21:00 -14°C° 0 mm 9 m/S 757 mmHg 79%
    22:00 -15°C° 0 mm 9 m/S 757 mmHg 78%
    23:00 -15°C° 0 mm 9 m/S 758 mmHg 78%

    20 Dezember, Freitag

    Zeit Temperatur Niederschläge Wind Luftdruck Luftfeuchtigkeit
    00:00 -16°C° 0 mm 9 m/S 758 mmHg 75%
    01:00 -16°C° 0 mm 9 m/S 758 mmHg 73%
    02:00 -16°C° 0 mm 8 m/S 758 mmHg 71%
    03:00 -17°C° 0 mm 8 m/S 758 mmHg 71%
    04:00 -17°C° 0 mm 8 m/S 759 mmHg 72%
    05:00 -17°C° 0 mm 8 m/S 759 mmHg 72%
    06:00 -18°C° 0.1 mm 7 m/S 759 mmHg 73%
    07:00 -18°C° 0.1 mm 7 m/S 760 mmHg 73%
    08:00 -18°C° 0.1 mm 7 m/S 760 mmHg 73%
    09:00 -18°C° 0.1 mm 7 m/S 760 mmHg 72%
    10:00 -18°C° 0.1 mm 7 m/S 761 mmHg 72%
    11:00 -17°C° 0.1 mm 7 m/S 761 mmHg 72%
    12:00 -17°C° 0 mm 7 m/S 761 mmHg 72%
    13:00 -15°C° 0 mm 7 m/S 761 mmHg 73%
    14:00 -15°C° 0 mm 7 m/S 761 mmHg 74%
    15:00 -15°C° 0 mm 7 m/S 761 mmHg 77%
    16:00 -14°C° 0 mm 7 m/S 761 mmHg 80%
    17:00 -14°C° 0 mm 7 m/S 762 mmHg 83%
    18:00 -13°C° 0.1 mm 7 m/S 762 mmHg 86%
    19:00 -12°C° 0.1 mm 7 m/S 763 mmHg 89%
    20:00 -11°C° 0.1 mm 7 m/S 763 mmHg 92%
    21:00 -8°C° 0.2 mm 7 m/S 763 mmHg 91%
    22:00 -7°C° 0.2 mm 8 m/S 764 mmHg 89%
    23:00 -5°C° 0.2 mm 8 m/S 764 mmHg 88%
    Mehr zeigen